OPTUS-X (ADS-01)

Last updated on Thu Sep 10 2026 00:03:01 GMT+0000 (Coordinated Universal Time)

1 62006U 24212A 26252.60114354 -.00000164 00000+0 00000+0 0 9996 2 62006 0.0575 273.2525 0002555 261.4042 186.8052 1.00272166 6602
UTC large
Height (km)
Speed (km/s)
/
Latitude / Longitude
Inclination (degrees)
Orbital Period (minutes)
Azimuth
Elevation
Range (km)
Doppler Factor

Next 0 passes for location: London (51.5072 / 0.1276)

No passes found over London.
OPTUS-X (ADS-01)